Elizabeth City, NC

1:14 AM EDT on April 29, 2017 (GMT -0400)
Elizabeth City Cgas-Regional

Weather History for KECG - March, 2013

Change the Weather History Date:

Sunday, March 17, 2013

  Actual Average Record
Temperature  
Mean Temperature 47 °F 50 °F  
Max Temperature 54 °F 61 °F 92 °F (1945)
Min Temperature 40 °F 40 °F 24 °F (2017)
Degree Days  
Heating Degree Days 18 15  
Month to date heating degree days 308 287  
Since 1 July heating degree days 2317 2759  
Cooling Degree Days 0 0  
Month to date cooling degree days 0 0  
Year to date cooling degree days 5 2  
Moisture  
Dew Point 42 °F    
Average Humidity 88    
Maximum Humidity 100    
Minimum Humidity 76    
Precipitation  
Precipitation 0.01 in 0.13 in 1.72 in (1975)
Month to date precipitation 1.34 1.97  
Year to date precipitation 6.39 8.41  
Snow  
Snow 0.00 in - T in (2005)
Month to date snowfall T  
Since 1 July snowfall T  
Snow Depth 0.00 in    
Sea Level Pressure  
Sea Level Pressure 30.03 in    
Wind  
Wind Speed 15 mph (NNE)    
Max Wind Speed 21 mph    
Max Gust Speed 26 mph    
Visibility 8 miles    
Events Rain    
T = Trace of Precipitation, MM = Missing Value Source: NWS Daily Summary

Daily Weather History Graph

Daily Weather History Graph

Search for Another Location

Airport or City:

Trip Planner

Search our weather history database for the weather conditions in past years. The results will help you decide how hot, cold, wet, or windy it might be!

Date:

Astronomy

Mar. 17, 2013 Rise Set
Actual Time 7:12 AM EDT 7:14 PM EDT
Civil Twilight 6:46 AM EDT 7:39 PM EDT
Nautical Twilight 6:16 AM EDT 8:09 PM EDT
Astronomical Twilight 5:46 AM EDT 8:39 PM EDT
Moon 10:32 AM EDT (3/17) 12:10 AM EDT (3/17)
Length of Visible Light 12h 53m
Length of Day
12h 01m
Waxing Crescent, 31% of the Moon is Illuminated
Mar 17
Waxing Crescent
Mar 19
First Quarter
Mar 27
Full
Apr 3
Last Quarter
Apr 10
New

Hourly Weather History & Observations

Time (EDT) Temp. Windchill Dew Point Humidity Pressure Visibility Wind Dir Wind Speed Gust Speed Precip Events Conditions
12:54 AM 54.0 °F - 51.1 °F 90% 29.83 in 10.0 mi Calm Calm - N/A   Mostly Cloudy
1:29 AM 51.8 °F - 50.0 °F 94% 29.85 in 2.5 mi North 17.3 mph 20.7 mph N/A   Partly Cloudy
1:36 AM 53.6 °F - 51.8 °F 94% 29.85 in 4.0 mi NE 6.9 mph 20.7 mph N/A   Partly Cloudy
1:54 AM 53.1 °F - 52.0 °F 96% 29.86 in 7.0 mi North 8.1 mph - N/A   Clear
2:29 AM 53.6 °F - 51.8 °F 94% 29.88 in 5.0 mi North 11.5 mph - N/A   Scattered Clouds
2:38 AM 53.6 °F - 51.8 °F 94% 29.89 in 4.0 mi North 12.7 mph - N/A   Mostly Cloudy
2:49 AM 53.6 °F - 51.8 °F 94% 29.89 in 2.5 mi North 11.5 mph 20.7 mph N/A   Overcast
2:54 AM 53.1 °F - 52.0 °F 96% 29.90 in 2.0 mi North 15.0 mph - N/A   Overcast
3:05 AM 51.8 °F - 51.8 °F 100% 29.90 in 1.8 mi North 13.8 mph - N/A   Overcast
3:13 AM 51.8 °F - 50.0 °F 94% 29.90 in 2.5 mi NNE 12.7 mph - N/A   Overcast
3:25 AM 50.0 °F - 48.2 °F 94% 29.91 in 3.0 mi NNE 15.0 mph - N/A   Overcast
3:54 AM 46.9 °F - 46.0 °F 97% 29.92 in 3.0 mi NNE 13.8 mph - 0.01 in   Overcast
4:03 AM 46.4 °F 40.4 °F 46.4 °F 100% 29.93 in 3.0 mi NNE 13.8 mph - N/A   Overcast
4:13 AM 46.4 °F 41.5 °F 46.4 °F 100% 29.93 in 2.5 mi NNE 10.4 mph - N/A   Overcast
4:28 AM 46.4 °F 41.5 °F 46.4 °F 100% 29.93 in 3.0 mi NNE 10.4 mph - N/A   Overcast
4:44 AM 46.4 °F 41.1 °F 44.6 °F 93% 29.94 in 6.0 mi NNE 11.5 mph - N/A   Overcast
4:54 AM 46.9 °F - 45.0 °F 93% 29.94 in 8.0 mi NE 12.7 mph - N/A   Overcast
5:02 AM 46.4 °F 40.1 °F 44.6 °F 93% 29.95 in 9.0 mi NNE 15.0 mph - N/A   Overcast
5:18 AM 44.6 °F 39.2 °F 42.8 °F 93% 29.95 in 9.0 mi NNE 10.4 mph - N/A   Mostly Cloudy
5:40 AM 44.6 °F 38.8 °F 42.8 °F 93% 29.96 in 9.0 mi NNE 11.5 mph - N/A   Mostly Cloudy
5:49 AM 44.6 °F 38.1 °F 42.8 °F 93% 29.97 in 10.0 mi NE 13.8 mph - N/A   Scattered Clouds
5:54 AM 45.0 °F 38.9 °F 42.1 °F 90% 29.97 in 10.0 mi NE 12.7 mph - N/A   Partly Cloudy
6:24 AM 44.6 °F 39.7 °F 42.8 °F 93% 29.99 in 8.0 mi NNE 9.2 mph - N/A   Mostly Cloudy
6:54 AM 44.1 °F 38.1 °F 42.1 °F 93% 29.99 in 8.0 mi NNE 11.5 mph - N/A   Mostly Cloudy
7:54 AM 44.1 °F 37.1 °F 42.1 °F 93% 30.01 in 6.0 mi NE 15.0 mph - N/A   Overcast
8:54 AM 44.1 °F 37.1 °F 41.0 °F 89% 30.04 in 8.0 mi NNE 15.0 mph - N/A   Overcast
9:54 AM 45.0 °F 38.5 °F 42.1 °F 90% 30.06 in 7.0 mi NNE 13.8 mph - N/A   Overcast
10:49 AM 44.6 °F 38.8 °F 41.0 °F 87% 30.08 in 10.0 mi NE 11.5 mph - N/A   Overcast
10:54 AM 45.0 °F 39.3 °F 41.0 °F 86% 30.09 in 10.0 mi NE 11.5 mph - N/A   Overcast
11:54 AM 45.0 °F 39.3 °F 39.9 °F 82% 30.13 in 10.0 mi NE 11.5 mph - N/A   Overcast
12:54 PM 45.0 °F 37.9 °F 39.9 °F 82% 30.14 in 10.0 mi NNE 16.1 mph - N/A   Overcast
1:37 PM 46.4 °F 39.2 °F 39.2 °F 76% 30.12 in 10.0 mi NNE 18.4 mph - N/A   Overcast
1:52 PM 44.6 °F 37.2 °F 39.2 °F 81% 30.12 in 10.0 mi NNE 17.3 mph - N/A   Overcast
1:54 PM 45.0 °F 37.9 °F 39.0 °F 80% 30.12 in 10.0 mi NNE 16.1 mph - N/A   Overcast
2:28 PM 44.6 °F 38.1 °F 37.4 °F 76% 30.12 in 10.0 mi NNE 13.8 mph - N/A   Overcast
2:47 PM 44.6 °F 37.4 °F 37.4 °F 76% 30.12 in 10.0 mi NNE 16.1 mph - N/A   Overcast
2:54 PM 45.0 °F 38.5 °F 37.9 °F 76% 30.12 in 10.0 mi NNE 13.8 mph - N/A   Overcast
3:54 PM 45.0 °F 37.4 °F 37.9 °F 76% 30.11 in 10.0 mi NE 18.4 mph - N/A   Overcast
4:54 PM 43.0 °F 34.8 °F 37.0 °F 80% 30.11 in 10.0 mi NE 18.4 mph - N/A   Overcast
5:01 PM 42.8 °F 35.1 °F 37.4 °F 81% 30.11 in 10.0 mi NNE 16.1 mph - N/A   Overcast
5:54 PM 42.1 °F 33.9 °F 36.0 °F 79% 30.14 in 10.0 mi NNE 17.3 mph - N/A   Overcast
6:29 PM 42.8 °F 36.2 °F 35.6 °F 76% 30.16 in 10.0 mi NNE 12.7 mph - N/A   Overcast
6:36 PM 42.8 °F 35.8 °F 35.6 °F 76% 30.16 in 10.0 mi NE 13.8 mph - N/A   Overcast
6:54 PM 42.1 °F 34.9 °F 36.0 °F 79% 30.17 in 10.0 mi NNE 13.8 mph - N/A   Overcast
7:23 PM 41.0 °F 32.5 °F 35.6 °F 81% 30.18 in 8.0 mi NE 17.3 mph - N/A   Overcast
7:52 PM 41.0 °F 33.1 °F 37.4 °F 87% 30.19 in 8.0 mi NE 15.0 mph - N/A   Overcast
7:54 PM 41.0 °F 32.8 °F 37.0 °F 86% 30.19 in 8.0 mi NE 16.1 mph - N/A   Overcast
8:54 PM 41.0 °F 32.5 °F 37.0 °F 86% 30.21 in 10.0 mi NE 17.3 mph - N/A   Overcast
9:54 PM 41.0 °F 32.8 °F 37.0 °F 86% 30.20 in 10.0 mi NE 16.1 mph 26.5 mph N/A   Overcast
10:54 PM 42.1 °F 34.2 °F 36.0 °F 79% 30.22 in 10.0 mi NE 16.1 mph - N/A   Overcast
11:54 PM 42.1 °F 34.5 °F 36.0 °F 79% 30.23 in 10.0 mi NE 15.0 mph - 0.00 in Rain Light Rain